Tracking 28794 objects as of 19-Apr-2024
HD Live streaming from Space Station
objects crossing your sky now

SL-16 R/B

Track SL-16 R/B now!
10-day predictions
SL-16 R/B is classified as:


NORAD ID: 22220
Int'l Code: 1992-076B
Perigee: 836.1 km
Apogee: 851.6 km
Inclination: 71.0 °
Period: 101.6 minutes
Semi major axis: 7214 km
RCS: 15.162 m2 (large)
Launch date: November 17, 1992
Source: Commonwealth of Independent States (former USSR) (CIS)
Launch site: TYURATAM MISSILE AND SPACE COMPLEX (TTMTR)

Note: This is a ROCKET BODY
Your satellite tracking list
Your tracking list is empty




NASA's NSSDC Master Catalog

Two Line Element Set (TLE):
1 22220U 92076B   24110.60701774  .00000118  00000-0  82894-4 0  9997
2 22220  71.0005 199.6996 0010779  60.4680  39.8132 14.16642886624239
Source of the keplerian elements: AFSPC